Location: *
(45.5667°S, 177.5167°W)
Time: 22:52:25
(UTC+00:00)

IRIDIUM 114 - Pass Details

Date: 29 May 2022
Orbit: 776 x 779 km, 86.4° (Epoch: 24 June)

Event Time Altitude Azimuth Distance (km) Brightness Sun altitude
Rises 06:07:08 0° 15° (NNE) 3,253 7.5 -18.6°
Reaches altitude 10° 06:09:31 10° 20° (NNE) 2,334 6.7 -19.0°
Maximum altitude 06:14:32 49° 93° (E) 1,015 4.5 -19.9°
Enters shadow 06:18:36 16° 163° (SSE) 1,990 6.2 -20.6°
